[[{"header":{"parameterUnit":"m.s-1","parameterCategory":1,"la1":30.2991,"la2":30.254,"lo1":-89.0895,"lo2":-89.0444,"dx":0.0017,"dy":0.0017,"nx":28,"ny":28,"refTime":"2022-12-13T15:00:00:Z","depth":0,"parameterNumber":2,"parameterNumberName":"U-component_of_WINDS"},"data":[0,0,0,0,0,0,0,0,0,0,0,0,0,0,0,0,0,0,0,0,0,0,0,0,0,0,0,0,0,0,0,0,0,0,0,0,0,0,0,0,0,0,0,0,0,0,0,0,0,0,0,0,0,0,0,0,0,0,-8.5818,-8.5821,0,-8.6076,-8.6079,-8.6082,-8.6116,-8.6114,-8.6111,-8.6109,-8.6366,-8.6375,-8.6384,0,0,0,0,0,0,0,0,0,0,0,0,0,-8.5348,-8.5357,-8.5818,-8.5821,-8.5824,-8.6076,-8.6079,-8.6083,-8.6117,-8.6114,-8.6111,-8.6108,-8.6363,-8.6374,-8.6385,0,0,0,0,0,0,0,0,0,0,0,0,0,-8.5574,-8.536,-8.5817,-8.5872,-8.5879,-8.6075,-8.6079,-8.6084,-8.6117,-8.6114,-8.611,-8.6107,-8.6359,-8.6373,-8.6386,-8.6543,0,0,-8.6428,-8.6434,0,0,0,0,0,0,0,0,-8.5561,-8.5591,-8.586,-8.5868,-8.5877,-8.6061,-8.6008,-8.6238,-8.6118,-8.6027,-8.6109,-8.6105,-8.6267,-8.6288,-8.6344,-8.6555,-8.6566,-8.6429,-8.6437,-8.6443,-8.6447,0,0,0,0,0,0,0,-8.5545,-8.558,-8.592,-8.5864,-8.5874,-8.5881,-8.5909,-8.6052,-8.6164,-8.6034,-8.6037,-8.6068,-8.627,-8.6331,-8.635,-8.657,-8.6429,-8.6441,-8.6449,-8.6455,-8.6924,-8.6928,0,0,0,0,0,0,-8.5521,-8.5567,-8.5911,-8.5927,-8.5707,-8.5893,-8.5924,-8.6005,-8.6162,-8.6183,-8.6071,-8.6069,-8.6309,-8.6334,-8.6359,-8.6553,-8.6443,-8.6456,-8.6464,-8.692,-8.6925,-8.693,0,0,0,0,0,0,-8.551,-8.5551,-8.5901,-8.5748,-8.5793,-8.5905,-8.5995,-8.6012,-8.6072,-8.619,-8.6209,-8.6112,-8.6307,-8.634,-8.6498,-8.6562,-8.6462,-8.6474,-8.6915,-8.6921,-8.6927,-8.6941,0,0,0,0,0,0,-8.5497,-8.5547,-8.5609,-8.5749,-8.5801,-8.6037,-8.6,-8.602,-8.6097,-8.6096,-8.6234,-8.6253,-8.6307,-8.6477,-8.6512,-8.6579,-8.6485,-8.6909,-8.6918,-8.6925,-8.6935,-8.6947,-8.6958,0,0,0,0,0,-8.548,-8.56,-8.5612,-8.5653,-8.5881,-8.604,-8.607,-8.6131,-8.6102,-8.6164,-8.624,-8.6249,-8.6551,-8.6493,-8.6532,-8.6605,-8.6905,-8.6915,-8.6925,-8.693,-8.6945,-8.6957,0,0,0,0,0,0,-8.546,-8.562,-8.5634,-8.5804,-8.5909,-8.6046,-8.6125,-8.6145,-8.6258,-8.6252,-8.6323,-8.6353,-8.6507,-8.6573,-8.6506,-8.6766,-8.6725,-8.6743,-8.6716,-8.6731,-8.6742,-8.6721,-8.6496,0,0,0,0,0,-8.5477,-8.5595,-8.5727,-8.5864,-8.5917,-8.6013,-8.6084,-8.6123,-8.6233,-8.6277,-8.6364,-8.6469,-8.6588,-8.6664,-8.678,-8.6947,-8.6976,-8.7017,-8.7028,-8.7036,-8.7049,-8.7142,-8.7161,-8.6961,-8.6961,-8.6961,0,0,-8.5509,-8.5612,-8.5681,-8.5863,-8.5949,-8.6067,-8.6049,-8.6175,-8.6263,-8.6295,-8.6449,-8.6518,-8.664,-8.6803,-8.6879,-8.6862,-8.7112,-8.7048,-8.7054,-8.7063,-8.7154,-8.7172,-8.7189,-8.6968,-8.6967,-8.6966,0,0,-8.563,-8.572,-8.5844,-8.5932,-8.6064,-8.6128,-8.6158,-8.6294,-8.6341,-8.6498,-8.6525,-8.6631,-8.6834,-8.692,-8.6989,-8.7148,-8.7159,-8.7184,-8.7239,-8.7329,-8.7345,-8.7359,-8.7413,-8.7432,-8.7198,-8.7198,-8.7198,0,-8.5653,-8.5835,-8.5905,-8.6031,-8.611,-8.615,-8.6275,-8.6356,-8.6517,-8.657,-8.655,-8.6807,-8.6892,-8.7075,-8.7115,-8.7171,-8.7206,-8.7165,-8.7337,-8.7352,-8.7366,-8.7419,-8.7439,-8.7199,-8.7199,-8.7199,-8.7199,0,-8.5856,-8.5982,-8.6067,-8.6225,-8.6314,-8.6439,-8.6527,-8.6608,-8.6642,-8.6707,-8.6867,-8.6971,-8.7109,-8.7157,-8.7189,-8.7345,-8.733,-8.7324,-8.7283,-8.7386,-8.7436,-8.7457,-8.7202,-8.7201,-8.7201,-8.72,0,0,-8.5964,-8.6165,-8.6194,-8.6267,-8.6418,-8.6515,-8.6643,-8.6781,-8.6848,-8.6961,-8.7067,-8.7241,-8.7236,-8.7316,-8.7359,-8.7439,-8.7555,-8.7422,-8.7426,-8.744,-8.7732,-8.7733,-8.7755,-8.7567,-8.7571,-8.7574,-8.7721,0,-8.6099,-8.6329,-8.6398,-8.659,-8.6707,-8.6749,-8.686,-8.6963,-8.703,-8.7137,-8.721,-8.733,-8.7317,-8.7365,-8.7446,-8.7524,-8.7614,-8.7515,-8.7663,-8.7667,-8.7626,-8.7782,-8.7783,-8.7916,-8.7741,-8.7745,-8.7747,0,-8.6285,-8.6404,-8.6609,-8.6747,-8.6798,-8.6897,-8.703,-8.7133,-8.7252,-8.7295,-8.7386,-8.7424,-8.7557,-8.7514,-8.7698,-8.7629,-8.7695,-8.7743,-8.7749,-8.7761,-8.7709,-8.7794,-8.796,-8.7979,-8.7779,-8.7777,-8.7774,0,-8.634,-8.6551,-8.6701,-8.6763,-8.6928,-8.6997,-8.7068,-8.7184,-8.7263,-8.738,-8.7432,-8.7561,-8.7631,-8.773,-8.7801,-8.7764,-8.7978,-8.7941,-8.8014,-8.8012,-8.8052,-8.8048,-8.8227,-8.8102,-8.8102,-8.8101,-8.8101,0,-8.648,-8.6603,-8.6728,-8.682,-8.6959,-8.7038,-8.7172,-8.7246,-8.735,-8.7455,-8.75,-8.7597,-8.7688,-8.7797,-8.7854,-8.7996,-8.8028,-8.8065,-8.8077,-8.8058,-8.8053,-8.8098,-8.8089,-8.8107,-8.8106,-8.8105,-8.8104,0,-8.6562,-8.6652,-8.6817,-8.6963,-8.7002,-8.7098,-8.7221,-8.7311,-8.7382,-8.7514,-8.755,-8.7659,-8.7791,-8.7874,-8.804,-8.8078,-8.8233,-8.8245,-8.8193,-8.8198,-8.8265,-8.8256,-8.8476,-8.8508,-8.8365,-8.8367,-8.8368,0,-8.6643,-8.6739,-8.6896,-8.6972,-8.7045,-8.7166,-8.7248,-8.7331,-8.7415,-8.756,-8.7632,-8.7768,-8.7879,-8.8088,-8.818,-8.8308,-8.832,-8.8389,-8.8339,-8.8317,-8.8317,-8.8309,-8.8318,-8.8395,-8.8396,-8.8397,-8.8398,0,-8.6776,-8.6817,-8.6936,-8.7071,-8.7169,-8.7279,-8.7388,-8.7447,-8.7548,-8.764,-8.7777,-8.7864,-8.8037,-8.8169,-8.8307,-8.8378,-8.8404,-8.8414,-8.8437,-8.8416,-8.838,-8.8397,-8.8211,-8.8407,-8.8406,-8.8405,-8.8405,-8.8404,-8.6858,-8.6946,-8.7071,-8.7202,-8.7294,-8.7396,-8.7488,-8.7572,-8.7689,-8.7837,-8.7879,-8.8021,-8.814,-8.8328,-8.8403,-8.8515,-8.8505,-8.8539,-8.8547,-8.8552,-8.8552,-8.8368,-8.854,-8.854,-8.854,-8.854,-8.854,0,-8.6991,-8.7075,-8.7195,-8.7349,-8.7452,-8.7474,-8.7596,-8.768,-8.7806,-8.7916,-8.8027,-8.8185,-8.8315,-8.8421,-8.8555,-8.8624,-8.8639,-8.8656,-8.8649,-8.8665,-8.8554,-8.8519,-8.8641,-8.8641,-8.8641,-8.8641,-8.8641,-8.8641,-8.7072,-8.7221,-8.7277,-8.7472,-8.7555,-8.7698,-8.7766,-8.786,-8.7948,-8.8123,-8.8233,-8.8303,-8.8411,-8.8554,-8.8675,-8.8703,-8.8748,-8.8762,-8.8791,-8.8684,-8.8673,-8.8662,-8.8629,-8.8772,-8.8772,-8.8892,-8.8893,-8.8894]},{"header":{"parameterUnit":"m.s-1","parameterCategory":1,"la1":30.2991,"la2":30.254,"lo1":-89.0895,"lo2":-89.0444,"dx":0.0017,"dy":0.0017,"nx":28,"ny":28,"refTime":"2022-12-13T15:00:00:Z","depth":0,"parameterNumber":3,"parameterNumberName":"V-component_of_WINDS"},"data":[0,0,0,0,0,0,0,0,0,0,0,0,0,0,0,0,0,0,0,0,0,0,0,0,0,0,0,0,0,0,0,0,0,0,0,0,0,0,0,0,0,0,0,0,0,0,0,0,0,0,0,0,0,0,0,0,0,0,2.8949,2.8951,0,2.9074,2.9076,2.9077,2.9108,2.9107,2.9106,2.9106,2.9232,2.9236,2.924,0,0,0,0,0,0,0,0,0,0,0,0,0,2.8738,2.8742,2.8949,2.8951,2.8952,2.9074,2.9076,2.9077,2.9108,2.9107,2.9106,2.9105,2.9231,2.9235,2.924,0,0,0,0,0,0,0,0,0,0,0,0,0,2.8843,2.8743,2.8949,2.8982,2.8987,2.9074,2.9076,2.9078,2.9108,2.9107,2.9106,2.9105,2.9229,2.9235,2.9241,2.9303,0,0,2.926,2.9262,0,0,0,0,0,0,0,0,2.8837,2.8851,2.8976,2.898,2.8985,2.9074,2.9048,2.9153,2.9109,2.9062,2.9106,2.9104,2.918,2.919,2.9216,2.9309,2.9314,2.926,2.9264,2.9267,2.9268,0,0,0,0,0,0,0,2.883,2.8846,2.8999,2.8978,2.8983,2.8992,2.9005,2.9068,2.9126,2.9066,2.9069,2.9083,2.9183,2.921,2.922,2.9316,2.926,2.9266,2.9269,2.9272,2.947,2.9472,0,0,0,0,0,0,2.8817,2.8839,2.8995,2.9002,2.8907,2.8996,2.9011,2.9047,2.9126,2.9137,2.9084,2.9084,2.92,2.9212,2.9224,2.9305,2.9267,2.9272,2.9276,2.9469,2.9471,2.9472,0,0,0,0,0,0,2.8812,2.883,2.899,2.8922,2.8943,2.9001,2.9041,2.905,2.9078,2.9139,2.915,2.9102,2.92,2.9216,2.9284,2.931,2.9275,2.9281,2.9467,2.9469,2.9472,2.9465,0,0,0,0,0,0,2.8806,2.8828,2.8852,2.8922,2.8946,2.9047,2.9042,2.9053,2.9089,2.909,2.9159,2.9169,2.92,2.9275,2.929,2.9318,2.9286,2.9465,2.9468,2.9471,2.9464,2.9467,2.947,0,0,0,0,0,2.8798,2.8844,2.8853,2.8872,2.8977,2.9049,2.9063,2.9098,2.909,2.9116,2.9156,2.9167,2.9304,2.9282,2.9299,2.9329,2.9464,2.9467,2.9471,2.9462,2.9466,2.947,0,0,0,0,0,0,2.8774,2.8854,2.8865,2.8935,2.8985,2.9054,2.9086,2.9101,2.9154,2.9153,2.9194,2.921,2.9277,2.9309,2.9283,2.9395,2.9384,2.9391,2.9371,2.9376,2.9379,2.9371,2.9291,0,0,0,0,0,2.8778,2.8829,2.8896,2.8951,2.8976,2.9027,2.9059,2.9083,2.9136,2.9157,2.9202,2.9253,2.9309,2.9344,2.9398,2.9468,2.9485,2.9497,2.9501,2.9503,2.9509,2.9553,2.956,2.9484,2.9484,2.9484,0,0,2.8784,2.8834,2.8864,2.8948,2.8989,2.9043,2.9044,2.91,2.914,2.9165,2.9234,2.9269,2.9329,2.94,2.9434,2.943,2.9534,2.9508,2.9509,2.9514,2.9557,2.9564,2.957,2.9486,2.9486,2.9486,0,0,2.8824,2.8865,2.8918,2.8961,2.9024,2.9059,2.9071,2.9139,2.9164,2.9233,2.9255,2.9303,2.9396,2.944,2.9473,2.9533,2.9547,2.9549,2.9567,2.9609,2.9615,2.9621,2.9644,2.9652,2.9555,2.9555,2.9555,0,2.8824,2.8905,2.8943,2.8999,2.9036,2.9063,2.9118,2.9157,2.9234,2.926,2.9254,2.9375,2.9417,2.95,2.9515,2.9541,2.9558,2.9542,2.9611,2.9617,2.9623,2.9646,2.9655,2.9555,2.9555,2.9555,2.9555,0,2.8903,2.896,2.8994,2.9071,2.9112,2.9167,2.9214,2.9251,2.9271,2.9306,2.9379,2.9431,2.9497,2.9518,2.9538,2.9605,2.9601,2.9603,2.9593,2.963,2.9652,2.9661,2.9555,2.9555,2.9555,2.9555,0,0,2.893,2.9029,2.9042,2.9078,2.9152,2.9197,2.9253,2.932,2.9352,2.9405,2.9456,2.9535,2.9539,2.9577,2.9602,2.9638,2.9686,2.9636,2.9638,2.9646,2.9767,2.9767,2.9776,2.9695,2.9697,2.9698,2.9763,0,2.8981,2.9084,2.9121,2.9207,2.9261,2.9289,2.9339,2.939,2.9424,2.9476,2.9514,2.9571,2.9569,2.9594,2.9631,2.9672,2.9711,2.9668,2.9743,2.9746,2.9729,2.9788,2.9787,2.9845,2.9772,2.9773,2.9774,0,2.9053,2.911,2.9201,2.9272,2.9296,2.934,2.9406,2.9454,2.9513,2.9536,2.9581,2.9604,2.9666,2.9652,2.9739,2.9709,2.9742,2.9768,2.9771,2.978,2.9763,2.9801,2.9864,2.9874,2.9788,2.9787,2.9786,0,2.9067,2.9166,2.9234,2.9264,2.9347,2.9379,2.9415,2.9473,2.9512,2.9569,2.9595,2.9658,2.9693,2.9741,2.9782,2.9767,2.9866,2.9854,2.9888,2.9888,2.9909,2.9907,2.998,2.9927,2.9927,2.9926,2.9926,0,2.9121,2.9176,2.9242,2.9284,2.9348,2.9391,2.9453,2.949,2.9543,2.9593,2.962,2.9667,2.9717,2.9771,2.9802,2.9871,2.9886,2.9907,2.9916,2.9906,2.9904,2.993,2.9927,2.9929,2.9928,2.9928,2.9927,0,2.9148,2.9194,2.9271,2.9344,2.9364,2.9408,2.9471,2.9514,2.955,2.9615,2.9632,2.969,2.9755,2.98,2.9882,2.9904,2.998,2.9986,2.996,2.9964,2.9997,2.9994,3.0091,3.0107,3.004,3.0041,3.0041,0,2.918,2.9223,2.9302,2.9339,2.9376,2.9434,2.9474,2.9518,2.956,2.9633,2.9667,2.9734,2.9791,2.9894,2.9943,3.0007,3.0017,3.0046,3.0027,3.0017,3.0021,3.0018,3.0024,3.005,3.005,3.0051,3.0051,0,2.9233,2.9254,2.9312,2.9379,2.9427,2.9481,2.9535,2.9563,2.9617,2.9662,2.973,2.9774,2.9861,2.9928,2.9998,3.0035,3.0053,3.0057,3.0069,3.0061,3.0045,3.0057,2.9971,3.0055,3.0054,3.0054,3.0054,3.0054,2.9265,2.9307,2.937,2.9434,2.948,2.9531,2.9576,2.9619,2.9677,2.9752,2.9774,2.9845,2.9907,3.0002,3.0041,3.0098,3.0096,3.0112,3.0117,3.0121,3.0122,3.0034,3.0111,3.0111,3.0111,3.011,3.011,0,2.9322,2.9365,2.9423,2.95,2.9551,2.9564,2.9626,2.9668,2.9731,2.9786,2.9842,2.9922,2.9988,3.0044,3.0112,3.0147,3.0158,3.0164,3.0163,3.0172,3.0119,3.0103,3.0155,3.0155,3.0155,3.0155,3.0155,3.0155,2.9358,2.943,2.9459,2.9555,2.9598,2.9669,2.9703,2.9751,2.9797,2.9885,2.994,2.9977,3.0033,3.0107,3.0169,3.0184,3.0209,3.0214,3.0231,3.018,3.0175,3.017,3.0156,3.0218,3.0218,3.028,3.028,3.0281]}]]